Theta_e
338 337 337 336 336 335 334 335 335 335 334 334 332 331 330 327 324 318 312 309 308 308 308 309 309 309 309 309 310 310 311 311 311 312 312 312 313 313 314 317 318 319 320 319 318 317 317 316 317 318 319 321 323 328 330 330 331 332 332 332 332 334
338 337 337 336 335 336 335 336 337 336 335 335 333 331 330 327 322 316 310 308 307 308 308 309 310 309 310 309 310 310 311 311 312 312 312 313 313 313 314 314 315 317 317 316 317 321 323 321 318 318 319 319 323 330 332 330 331 332 332 332 332 333
338 338 337 335 334 337 337 336 338 337 336 335 333 333 333 329 324 315 308 308 308 308 308 309 310 310 311 310 310 311 311 312 313 313 313 314 314 315 315 315 316 316 317 319 324 329 330 329 327 323 324 325 328 332 332 331 332 332 332 333 333 331
338 337 338 336 334 337 337 337 338 337 337 335 333 335 334 331 327 318 308 307 308 307 310 311 309 309 310 310 311 311 312 313 313 314 315 314 316 316 315 318 317 316 321 326 331 332 330 331 332 330 331 332 332 333 332 332 332 333 333 334 334 332
338 337 338 336 335 337 336 337 338 337 337 336 335 335 334 331 323 315 309 309 309 309 315 315 311 311 311 310 310 310 313 313 314 314 314 316 320 319 321 328 326 325 329 332 333 332 330 332 334 334 335 335 334 334 334 334 334 335 335 335 335 332
338 337 337 335 334 337 337 338 337 337 337 336 337 335 334 331 323 317 315 312 310 313 320 320 316 314 310 310 312 312 312 311 313 313 314 325 328 324 329 335 334 334 335 335 335 334 333 334 335 335 335 335 335 335 335 334 335 335 335 336 335 332
337 337 336 334 334 336 337 337 337 337 337 337 336 334 334 332 328 325 323 316 315 321 326 325 323 320 316 318 318 316 317 315 320 320 321 332 333 330 334 337 337 337 337 337 337 336 336 335 334 333 334 334 333 333 334 334 334 333 334 335 334 333
338 337 335 334 334 336 336 336 336 336 337 336 335 334 334 332 330 330 329 326 326 328 329 329 328 324 322 327 324 320 323 324 330 330 327 333 336 336 337 337 337 336 336 336 335 334 335 334 333 333 333 333 333 332 332 332 332 331 332 333 333 333
337 337 335 333 334 336 336 335 336 335 336 336 334 334 333 332 331 331 331 330 330 329 329 329 327 324 324 329 327 323 326 329 333 334 332 334 336 336 336 335 335 335 335 334 334 333 333 333 333 333 332 332 332 332 332 331 330 330 331 332 333 333
336 336 334 332 335 336 335 335 335 335 335 335 334 333 331 330 331 331 331 329 329 331 330 328 326 325 326 328 327 326 330 332 334 334 335 336 334 333 332 332 333 334 334 334 335 332 331 333 332 331 332 332 332 332 332 331 331 331 331 332 334 333
335 335 334 333 334 334 335 335 334 334 335 334 333 332 329 329 331 332 332 329 328 331 331 329 327 327 327 329 328 330 333 334 335 334 336 336 332 331 329 330 330 330 330 331 333 332 330 331 331 331 332 332 332 332 333 332 332 331 331 333 334 334
334 334 333 332 332 333 335 334 333 334 335 334 333 330 327 329 331 332 332 330 328 329 330 328 327 328 330 332 332 333 333 335 337 336 335 333 329 329 329 329 328 328 328 329 332 331 329 331 331 332 332 331 331 330 332 332 331 331 331 332 333 334
334 333 332 333 332 333 335 333 333 334 333 334 334 329 326 329 331 333 332 329 328 327 328 328 329 331 333 334 334 335 335 335 335 334 332 330 329 329 331 330 329 329 327 327 331 328 328 331 330 331 330 329 329 327 328 329 328 328 330 330 330 331
334 333 332 333 332 333 334 333 333 334 333 334 333 328 326 329 331 332 332 329 327 326 327 330 332 332 333 334 335 335 336 335 334 332 331 330 331 332 332 330 329 329 326 326 330 327 327 329 328 330 328 326 328 326 324 326 325 325 328 329 329 330
333 333 331 332 332 333 333 332 333 333 333 333 331 328 327 330 332 332 331 330 328 326 327 331 332 333 333 334 336 335 335 334 333 332 332 332 332 333 331 328 326 326 324 325 327 327 327 327 326 327 324 325 328 327 327 326 326 328 329 329 330 331
333 333 333 332 331 331 332 332 331 331 332 332 329 329 329 331 332 332 332 332 330 327 328 330 332 333 334 335 337 336 334 333 332 332 333 332 333 334 331 328 327 323 321 322 322 322 324 325 324 323 321 324 328 328 329 329 327 328 328 328 330 330
334 333 332 332 330 329 331 331 331 331 332 331 329 331 333 332 333 332 332 332 330 328 329 330 332 334 335 335 336 334 332 333 333 333 333 333 333 333 331 331 331 325 317 318 318 316 319 320 320 323 324 325 329 329 328 329 328 327 328 328 329 329
333 332 331 331 330 330 331 332 333 333 332 330 330 332 334 332 332 332 332 331 329 330 330 331 333 335 334 334 333 332 332 333 334 334 334 334 333 332 332 332 332 328 318 314 316 314 315 315 314 320 326 326 328 329 328 327 327 327 327 327 327 328
333 331 330 330 330 331 332 332 334 333 332 332 331 332 332 332 332 332 331 329 329 331 331 332 334 334 333 333 333 333 334 334 334 334 334 334 334 333 332 330 330 329 321 314 315 314 314 314 313 317 325 328 328 328 327 326 326 326 327 326 326 325
333 331 330 329 330 331 332 333 334 334 333 332 332 332 331 330 332 331 329 329 329 330 331 333 334 334 333 334 335 334 334 334 333 334 333 333 333 332 330 329 328 324 318 315 314 314 313 313 318 323 325 327 327 326 326 326 326 326 326 324 323 320
333 332 330 330 330 330 332 333 333 333 333 332 332 331 330 331 331 330 328 329 330 331 333 334 334 334 334 334 335 334 334 334 333 333 332 331 331 329 326 326 325 320 315 314 313 314 313 313 320 328 329 327 326 326 326 325 323 322 320 317 312 308
333 332 331 331 329 329 331 330 330 332 332 333 332 331 331 332 331 330 330 330 332 332 334 335 334 334 335 335 334 334 334 334 333 333 332 330 328 327 325 322 320 318 315 313 314 313 311 312 314 318 327 330 327 326 325 323 319 312 309 307 303 302
334 333 332 331 330 330 330 329 331 331 329 331 332 331 332 331 331 330 332 333 333 334 335 335 334 335 335 335 334 334 333 333 333 332 331 329 327 324 322 318 316 316 315 313 313 309 305 307 308 314 325 327 326 328 327 323 319 310 302 301 301 300
333 332 332 332 331 332 331 329 330 329 328 331 331 331 332 332 331 332 333 334 334 335 335 334 334 334 334 333 333 333 333 332 331 330 329 328 324 320 317 316 314 313 314 313 308 305 304 303 305 315 324 322 321 325 322 319 322 317 306 301 301 300
334 333 334 333 332 332 331 327 328 330 330 332 332 333 332 332 333 333 333 334 335 335 334 334 334 333 333 333 333 333 332 331 329 327 326 323 318 317 315 314 314 312 311 308 304 303 304 303 303 307 315 321 322 319 315 315 321 319 309 301 300 301
335 335 336 334 332 333 331 328 329 330 331 332 333 333 333 333 333 332 333 334 334 335 333 333 333 333 333 332 332 332 331 329 328 325 322 319 316 316 315 313 312 310 306 304 303 303 303 303 303 303 304 311 313 310 309 312 317 319 313 305 300 300
336 337 336 334 333 333 332 331 330 330 331 333 333 333 333 333 332 331 332 334 334 333 333 332 332 332 332 331 331 330 329 328 325 321 319 317 316 314 313 312 310 307 304 303 303 303 303 303 302 303 303 302 302 302 303 306 312 317 318 311 303 300
336 337 335 334 333 331 331 331 331 332 333 333 333 333 332 332 331 331 332 333 333 332 332 332 331 331 331 331 330 329 327 324 320 318 317 315 314 313 312 310 306 304 303 303 303 303 303 303 302 302 302 302 301 301 301 302 305 309 315 313 307 305
335 335 335 334 332 331 332 332 333 334 334 334 333 333 331 331 331 332 332 333 333 332 331 331 331 331 331 330 329 326 323 320 317 316 315 314 312 312 310 306 304 303 303 303 303 303 302 302 302 302 301 301 301 301 301 301 300 303 309 311 310 309
334 334 335 334 332 331 333 333 333 334 334 334 333 332 331 331 332 332 332 332 332 331 330 330 330 330 330 329 327 323 320 317 316 315 313 312 312 310 306 303 303 303 302 303 302 302 303 302 302 301 301 301 301 301 300 300 300 301 306 310 310 309
333 335 335 333 332 332 333 334 334 334 334 334 331 330 330 332 333 332 332 332 331 331 330 329 330 330 328 327 324 320 317 315 314 313 312 311 309 306 303 302 302 302 302 302 302 302 302 302 301 301 301 301 301 300 300 300 300 301 304 308 310 309
333 335 335 334 333 332 333 334 335 334 334 333 331 330 330 332 333 332 332 332 331 330 330 329 329 329 326 324 321 317 315 313 312 311 311 309 306 303 302 302 302 302 302 302 302 302 301 301 301 301 301 300 300 300 300 299 299 299 300 303 307 309
334 335 335 334 334 333 333 334 335 335 334 332 332 332 332 332 333 332 332 331 330 330 329 329 328 327 324 320 317 315 313 312 311 310 308 306 303 302 302 301 301 301 302 301 301 301 301 301 301 301 300 300 299 299 299 299 299 299 299 299 303 307
334 335 335 334 334 334 334 334 334 334 333 331 332 332 333 333 332 332 331 331 330 330 329 328 326 324 321 317 314 313 311 311 310 308 306 303 302 301 301 301 301 301 301 301 301 301 301 301 300 300 300 299 299 299 299 299 299 298 299 298 299 303
335 335 334 334 333 334 334 335 334 333 331 331 332 333 333 333 332 331 330 330 330 329 328 326 323 321 317 314 312 311 310 309 308 306 303 302 301 301 301 300 300 301 301 300 300 300 300 300 300 299 299 299 299 299 298 298 298 298 298 298 297 299
335 334 333 333 334 334 335 335 334 332 332 332 333 333 333 332 331 330 330 330 329 329 328 324 319 318 315 312 311 310 309 307 305 303 302 301 301 300 300 300 300 300 300 300 300 300 299 299 299 299 299 299 298 298 298 298 298 298 297 297 297 297
335 333 332 333 334 335 334 334 333 333 333 333 332 332 332 331 331 330 330 330 329 329 327 321 316 315 313 311 310 309 307 305 303 302 301 300 300 300 300 300 300 300 300 300 299 299 299 298 299 299 298 298 298 298 298 297 297 297 297 297 297 297
Wind_Speed
16 17 17 16 16 17 16 13 13 13 12 12 12 12 12 11 10 10 11 11 11 10 9 9 9 9 10 11 12 12 11 10 9 8 7 7 7 7 7 6 6 6 5 4 4 5 7 7 8 9 9 9 9 8 8 8 7 8 7 8 9 8
16 17 17 16 16 16 16 14 13 12 12 13 13 12 11 10 10 10 11 12 11 10 9 9 9 9 10 11 11 11 11 10 9 8 7 7 6 6 5 5 5 4 4 4 4 4 6 8 8 9 10 10 8 6 7 9 8 8 8 8 8 10
16 17 17 16 17 17 16 15 14 13 13 14 13 10 9 9 9 10 12 12 12 11 10 10 9 9 9 10 11 11 11 10 9 8 7 6 5 4 4 4 4 4 4 3 3 2 3 6 8 9 9 8 6 6 8 9 8 8 9 8 9 12
16 17 16 16 17 17 17 16 15 14 14 13 12 9 8 8 8 11 13 13 12 12 10 9 9 8 8 8 9 10 10 9 8 7 6 5 3 3 2 3 4 4 3 2 2 2 2 3 5 6 7 6 5 7 8 8 8 9 9 8 10 12
16 17 17 16 17 17 18 17 15 15 13 12 11 10 8 7 9 11 12 12 12 12 9 8 8 8 8 8 8 9 9 8 7 6 4 3 1 1 1 2 4 4 2 2 3 4 4 4 4 5 5 6 6 7 7 7 8 9 9 9 12 14
15 17 17 17 18 18 18 17 16 15 13 12 11 9 8 7 9 10 10 11 11 10 8 7 7 8 9 8 8 8 8 7 6 4 3 3 2 0 0 1 3 3 3 3 3 4 5 5 4 5 5 6 6 7 7 7 8 8 8 8 12 13
15 17 17 17 17 18 18 17 16 15 13 12 10 9 9 7 8 9 8 9 9 8 6 6 6 7 8 8 8 8 7 6 5 3 3 3 1 1 1 2 3 3 3 3 4 4 5 6 7 5 5 7 7 7 7 8 8 8 8 8 11 12
15 16 17 17 17 17 17 17 16 15 14 13 11 10 10 8 8 8 7 8 7 6 6 5 5 6 6 6 6 6 6 5 5 3 2 2 1 1 1 2 3 3 3 4 5 5 4 6 7 7 6 7 8 8 9 9 9 9 8 8 10 12
15 16 17 18 18 17 17 17 16 15 14 14 11 10 10 9 8 8 7 7 7 6 5 5 4 4 4 4 4 4 4 4 4 3 2 2 1 0 1 2 3 4 5 5 5 6 5 6 7 7 8 7 8 9 9 10 10 10 9 9 9 11
16 16 17 19 18 17 17 17 16 15 15 14 11 11 11 9 8 7 7 7 8 6 5 5 5 5 4 4 4 4 4 3 3 3 2 1 0 1 2 2 3 4 5 5 5 6 6 7 7 7 8 8 8 9 10 11 10 10 10 9 9 11
16 17 18 19 18 17 17 16 16 15 14 13 12 11 10 9 7 7 6 7 8 7 6 6 7 6 5 4 4 4 4 3 3 2 2 2 1 1 2 2 3 4 5 5 6 8 8 7 7 7 8 8 9 9 10 11 10 10 10 9 8 10
16 19 19 18 18 18 17 16 16 14 13 13 12 11 11 10 9 8 7 7 8 7 7 7 7 6 5 4 4 4 4 3 3 3 2 2 2 2 2 2 3 3 5 7 8 9 9 8 7 7 7 8 10 10 9 9 9 8 9 8 8 9
17 18 19 18 18 18 17 16 16 14 14 14 13 11 12 11 10 8 7 7 8 8 8 7 7 6 5 4 4 4 4 4 4 3 3 2 2 2 3 3 3 4 5 7 9 9 9 8 8 8 8 8 9 9 8 8 8 7 7 7 8 8
18 18 19 19 18 18 17 16 15 14 15 15 12 11 12 11 10 9 7 7 8 9 9 8 7 6 5 5 4 4 4 4 4 3 3 2 1 2 3 3 4 5 5 6 8 9 8 8 7 7 8 8 8 8 7 7 7 7 6 7 7 8
18 19 20 20 19 18 17 16 15 15 15 15 13 12 12 12 10 9 8 7 8 9 9 8 7 6 6 5 4 4 4 4 4 3 3 2 2 2 3 3 3 3 4 5 7 9 8 8 7 7 8 7 6 6 6 6 5 5 6 6 7 8
18 20 21 22 21 19 17 15 15 15 15 14 13 12 12 12 10 9 9 7 7 9 9 8 7 6 6 5 4 5 5 4 3 3 2 1 2 2 3 4 3 3 4 5 7 8 8 7 7 7 8 6 5 5 5 5 5 5 6 6 7 9
18 19 19 21 20 18 16 15 14 14 14 14 13 12 12 11 10 10 9 8 8 9 9 8 7 7 6 5 5 5 4 4 3 2 1 1 1 2 3 4 4 4 5 6 7 7 7 7 6 6 6 4 4 5 4 4 5 5 5 5 8 9
17 18 18 18 18 17 16 15 15 14 14 15 14 14 13 12 11 10 9 8 8 9 9 9 8 7 6 5 5 4 4 4 3 2 1 1 1 2 3 4 4 5 7 7 7 7 7 7 6 4 3 3 4 3 3 4 4 4 4 7 9 10
16 18 18 16 17 17 17 17 16 15 15 16 15 15 14 12 11 10 9 9 9 10 10 9 9 7 6 5 5 4 4 4 3 2 1 1 1 2 3 4 4 6 8 8 8 9 8 7 7 5 2 3 3 2 2 4 4 4 6 9 11 13
16 18 17 16 18 18 18 18 17 16 16 16 15 15 14 12 11 11 10 10 10 10 10 9 8 7 7 6 5 5 4 3 2 2 1 1 2 3 5 5 5 6 8 9 9 9 8 7 6 4 2 2 2 3 3 4 4 5 8 10 12 13
16 18 18 18 19 20 19 18 17 17 16 16 16 15 14 13 12 11 11 11 11 11 11 9 8 8 8 6 6 5 4 3 2 1 0 2 3 5 6 6 6 6 8 8 8 8 8 7 4 2 2 2 3 4 3 4 4 7 10 10 11 13
16 17 18 18 19 19 19 19 18 17 17 16 16 15 15 13 12 12 12 11 11 11 11 10 9 9 8 6 5 4 3 3 1 0 2 3 4 5 6 6 5 6 7 8 8 8 8 6 3 3 5 5 3 2 4 6 7 7 8 11 13 14
16 18 17 17 18 20 20 19 17 17 17 16 16 16 14 13 13 12 11 11 11 11 10 9 9 9 7 6 5 4 3 2 1 1 2 3 4 5 5 5 5 5 6 8 9 8 7 5 6 6 5 5 5 4 4 5 7 9 12 13 13 14
17 18 18 19 20 20 19 18 16 15 16 17 16 15 14 14 13 12 10 11 12 12 10 9 9 8 7 6 5 4 3 1 1 2 2 2 3 4 4 4 5 5 6 7 8 7 7 8 9 8 5 3 3 3 4 5 4 7 12 13 14 14
18 17 17 19 20 19 19 18 17 17 19 18 16 15 15 15 13 12 11 12 11 10 9 9 8 7 6 5 4 3 2 0 2 2 2 2 2 3 4 4 5 6 6 6 6 7 9 10 11 10 8 6 4 3 4 4 4 4 9 15 16 15
20 19 18 19 21 20 18 17 18 21 21 21 18 16 15 14 12 12 13 12 10 9 9 9 8 6 5 5 4 2 0 2 2 2 1 2 3 3 4 5 5 6 6 5 7 9 10 11 12 13 13 11 8 7 7 5 4 4 5 13 16 14
22 21 19 20 20 18 17 17 19 21 21 20 18 15 14 13 12 12 12 11 10 10 9 8 7 7 5 4 2 0 1 2 1 1 2 3 4 4 5 5 5 5 5 6 8 10 11 12 12 13 14 14 13 13 12 10 6 5 3 7 12 13
20 19 19 20 19 17 18 19 19 20 20 18 17 15 14 14 12 11 12 12 11 11 10 9 7 6 4 2 1 1 1 1 2 3 4 4 5 5 5 5 5 5 6 8 10 11 12 12 13 14 14 14 15 16 16 15 13 9 5 4 7 10
17 18 20 20 19 18 18 20 21 21 20 19 19 17 12 12 11 12 16 15 11 10 9 7 5 3 2 1 1 1 2 3 4 5 5 5 5 4 5 5 5 6 7 9 11 11 12 13 13 14 15 15 16 17 17 17 17 15 9 6 6 6
15 17 20 19 18 18 19 21 22 21 21 21 19 15 10 11 13 15 20 16 10 9 7 5 4 2 1 1 0 3 4 5 5 6 6 6 5 5 5 6 6 8 9 11 12 12 12 14 15 15 16 16 17 17 17 17 17 17 13 9 7 6
18 21 22 21 20 20 21 22 22 20 20 19 14 10 10 13 15 18 19 13 9 8 5 4 3 1 1 1 3 5 6 6 7 7 6 6 5 6 6 7 8 9 10 12 13 13 14 15 15 16 16 17 17 17 17 18 19 18 15 11 8 7
24 25 24 24 23 22 23 23 20 19 18 16 11 9 11 13 15 19 17 10 7 6 5 3 2 1 2 4 6 8 8 8 7 7 6 6 6 6 7 8 10 11 12 13 13 14 14 16 16 16 17 17 17 18 18 19 20 19 19 16 11 8
24 26 25 26 25 22 23 22 19 18 15 11 9 10 12 14 16 16 13 8 6 5 4 2 1 2 5 8 9 9 9 9 8 7 6 6 6 7 9 10 11 12 13 14 14 15 15 15 16 16 17 17 18 18 19 19 20 20 21 20 16 11
22 26 26 26 24 22 22 19 17 16 12 10 12 12 13 16 16 14 11 8 6 4 3 2 2 4 8 10 10 10 10 9 8 7 7 6 7 9 10 11 12 13 15 15 15 15 16 16 16 17 17 18 18 18 19 20 20 21 22 23 23 17
22 26 27 25 24 23 21 18 17 14 11 12 16 15 15 18 17 14 10 7 4 4 3 1 4 8 10 11 11 11 10 8 8 7 7 7 8 10 11 12 13 14 15 16 16 16 16 16 16 17 18 18 18 19 20 20 20 22 23 25 26 24
22 26 27 23 21 20 18 17 16 14 13 15 17 16 18 20 17 13 8 6 4 3 2 3 8 11 12 12 11 11 10 9 8 7 7 8 10 11 12 12 14 15 16 16 16 17 17 16 16 17 18 18 19 20 20 21 22 23 25 27 27 26
22 23 24 19 18 17 17 16 14 13 15 17 17 18 20 20 16 12 8 6 4 2 1 5 10 13 13 13 12 11 10 9 8 8 8 10 11 12 13 14 15 16 17 17 17 17 17 16 17 17 18 19 20 21 21 22 24 25 26 27 27 27
Wind_Direction
180 182 181 182 177 181 196 189 186 194 193 195 193 193 197 199 198 195 192 185 176 167 163 161 158 156 158 162 166 164 163 163 162 161 156 157 164 175 190 204 217 229 241 254 272 291 298 300 303 306 307 301 303 312 314 318 313 314 311 304 316 299
180 181 181 177 175 184 196 188 187 194 195 197 195 194 200 202 198 194 190 183 173 164 164 165 162 160 160 162 165 165 165 165 164 162 163 169 175 181 191 207 223 239 250 264 287 302 308 310 309 308 307 306 313 307 298 307 309 309 305 306 307 291
181 181 181 175 174 187 193 186 188 192 198 203 198 194 197 196 192 191 190 183 172 165 166 167 166 162 161 162 161 165 166 166 166 166 173 179 182 189 202 221 236 252 268 293 318 309 302 311 314 317 314 315 315 292 292 302 304 305 306 307 299 294
183 180 180 177 177 188 190 185 190 195 201 208 203 198 196 188 184 189 191 184 173 169 167 165 163 155 154 155 158 164 165 167 170 174 183 186 192 214 238 271 283 289 297 312 306 275 271 286 298 310 311 309 298 287 295 298 298 301 303 306 297 298
184 183 180 180 181 189 189 186 191 194 197 202 203 201 198 191 185 187 188 183 175 170 164 161 159 151 148 149 153 159 165 170 173 180 181 167 188 249 323 313 305 313 306 284 273 279 284 281 288 301 301 303 302 302 306 302 301 303 306 307 297 299
185 183 180 182 184 188 188 188 192 194 194 197 199 195 193 188 181 182 182 178 173 166 158 160 161 153 146 144 147 152 160 165 164 168 144 137 178 230 41 268 285 296 286 288 295 300 304 307 312 317 315 314 318 319 318 314 313 312 313 309 300 301
185 183 182 184 185 189 191 190 193 194 193 196 194 186 186 183 178 176 175 171 164 160 156 162 163 154 147 144 148 149 153 152 149 151 136 151 219 328 342 283 287 294 296 304 304 312 323 323 326 331 324 321 328 328 322 321 317 316 318 315 307 307
183 183 183 184 185 190 194 193 196 196 196 202 194 180 179 178 180 170 168 168 158 160 159 160 164 157 154 153 158 158 155 157 156 167 187 178 206 324 326 291 301 312 319 321 314 322 330 323 329 334 332 331 331 328 322 322 318 318 322 319 313 309
183 184 182 184 186 191 195 195 197 196 199 205 191 179 180 176 178 170 170 169 156 166 168 163 171 167 170 168 172 179 180 183 174 179 201 178 169 268 7 322 331 339 331 331 324 327 332 333 338 331 332 335 329 325 325 326 325 326 326 322 317 310
184 183 184 186 188 192 195 196 199 197 201 204 188 182 182 173 176 175 175 173 164 171 174 176 184 179 183 187 189 207 214 201 195 196 191 177 155 71 41 355 350 342 329 334 328 332 344 344 342 331 333 336 332 335 335 335 337 338 334 332 328 318
183 180 185 190 191 193 194 197 201 196 198 204 195 186 177 171 177 177 182 186 179 177 179 185 187 183 190 204 213 225 228 209 210 212 185 170 125 89 53 17 359 343 334 338 335 342 349 345 341 336 340 341 340 347 344 342 343 341 338 340 340 332
186 182 183 189 192 193 195 198 197 191 192 198 202 191 172 173 180 183 193 193 186 184 189 191 188 189 195 210 225 234 233 213 206 203 185 162 124 95 58 38 9 357 348 344 344 347 348 345 346 342 346 347 345 350 348 343 347 346 342 341 341 339
189 185 181 188 192 192 195 197 192 190 191 195 204 193 172 176 183 189 199 191 186 188 191 193 194 195 198 212 229 233 228 207 197 190 177 155 122 79 56 40 15 10 359 352 345 345 348 346 346 345 347 353 351 349 347 347 349 343 334 330 329 331
188 187 181 188 193 191 194 193 188 188 191 195 198 184 172 180 186 190 196 188 185 188 191 195 198 199 203 216 224 216 208 197 190 180 166 151 108 61 48 31 22 14 358 356 345 342 347 341 346 350 346 355 357 349 349 353 348 338 332 327 323 324
186 185 183 190 192 191 192 187 185 187 191 194 189 175 175 182 187 191 192 190 189 189 193 196 198 203 208 208 199 189 189 187 178 166 166 147 86 50 25 2 10 16 356 351 345 341 341 337 342 344 341 352 2 0 7 11 5 6 11 356 336 329
184 185 186 191 191 188 186 182 185 188 191 192 184 175 178 183 188 193 193 195 196 190 190 195 199 206 206 190 174 178 180 177 168 157 162 109 67 23 356 342 344 11 0 345 343 341 339 339 340 339 343 354 9 20 29 35 34 35 34 13 342 332
183 186 189 192 186 181 179 179 184 188 191 189 182 179 182 187 191 194 193 198 198 188 187 192 198 202 196 179 178 185 178 170 164 151 136 58 40 358 353 346 346 357 357 352 351 352 352 348 344 345 343 358 38 41 36 45 46 40 26 352 331 328
183 184 191 190 178 174 176 180 184 188 192 188 185 186 186 190 194 196 196 199 198 191 189 190 194 195 184 183 192 190 176 165 158 146 125 298 311 0 1 356 353 345 353 5 5 4 8 357 358 8 355 15 53 58 42 47 47 29 350 331 328 326
182 183 190 183 171 173 177 183 186 188 190 190 191 191 190 192 196 200 199 199 197 193 195 193 190 189 183 183 189 189 176 160 153 150 167 298 348 17 3 356 354 343 350 3 7 8 9 3 5 21 53 67 70 94 73 53 45 6 330 325 327 323
183 183 185 178 172 176 180 185 188 189 190 193 196 195 194 196 198 202 201 197 194 192 198 196 189 190 187 179 182 188 174 157 162 167 200 313 356 0 346 341 343 348 353 359 9 10 4 11 19 24 76 100 66 67 69 61 36 334 323 323 322 323
182 180 182 180 177 179 183 187 190 191 193 195 199 198 196 199 201 200 199 196 191 192 197 192 187 190 187 185 189 184 163 157 167 168 285 329 340 338 334 334 338 352 1 3 11 11 4 20 43 67 114 99 30 29 48 44 7 327 326 334 340 343
179 178 184 181 178 184 190 192 194 195 195 196 199 200 199 202 205 198 194 193 192 194 196 185 182 186 182 182 184 168 160 164 149 73 326 324 327 327 329 335 345 357 6 7 12 13 10 25 64 133 156 152 121 60 40 21 4 0 0 358 0 357
181 181 182 178 181 190 193 193 195 196 199 202 201 203 205 206 206 199 191 194 195 193 190 182 180 181 176 174 171 162 166 167 111 11 339 326 324 331 336 347 8 14 13 13 14 16 22 49 85 114 146 159 161 160 104 55 16 14 17 11 9 7
185 184 180 180 185 188 192 193 193 198 203 206 205 208 210 204 202 201 198 201 197 187 183 182 180 177 175 175 176 173 169 164 10 354 341 336 336 347 0 10 22 27 29 23 20 28 47 67 83 103 132 147 142 141 105 91 64 22 15 16 21 22
185 187 182 181 181 181 191 194 190 197 201 201 203 207 207 201 198 204 208 205 195 185 183 184 182 178 179 183 185 183 175 308 350 357 346 4 19 21 25 29 28 30 36 37 43 59 69 73 78 89 112 132 118 85 76 91 114 87 25 18 25 29
183 185 181 180 182 185 193 194 193 199 199 199 201 201 200 199 205 215 211 198 187 187 188 186 185 182 185 191 187 185 268 343 347 2 19 47 51 45 42 39 35 35 39 53 73 80 76 74 74 78 91 104 104 95 94 99 119 127 48 21 23 30
185 186 185 188 193 192 193 195 199 201 198 199 200 196 196 201 212 218 209 193 186 190 188 184 187 185 190 194 177 160 354 354 354 55 68 71 66 57 54 45 41 47 56 75 87 87 82 78 76 76 81 88 89 84 83 92 102 128 116 36 26 33
184 186 192 197 196 189 189 191 192 197 198 199 199 198 202 209 213 207 200 193 185 187 184 182 190 188 187 185 75 13 37 120 114 102 91 82 75 64 59 50 50 63 77 89 89 87 87 84 82 80 79 80 79 75 74 80 86 96 121 81 42 41
183 186 192 195 189 183 189 190 189 194 198 199 201 204 207 215 216 196 188 187 184 188 187 185 196 191 190 293 8 73 131 132 114 103 98 88 81 71 63 60 69 84 91 93 90 89 89 88 85 83 83 82 77 73 69 68 72 80 95 95 68 49
190 194 191 189 184 183 190 191 193 194 194 199 203 207 208 211 213 192 180 182 192 198 190 186 197 187 213 287 155 150 138 125 112 105 100 91 83 73 72 80 92 98 99 96 93 91 90 87 86 86 86 86 81 76 71 68 69 71 76 78 64 47
181 189 189 188 183 187 191 193 197 195 192 199 202 205 209 208 206 190 179 184 195 194 187 184 187 184 229 205 157 148 133 120 111 106 98 90 86 81 89 102 105 105 102 99 95 92 91 90 89 88 85 83 81 79 77 75 73 71 72 74 62 42
173 180 184 185 183 188 193 194 197 195 194 200 202 202 204 204 201 191 185 187 187 181 180 179 172 194 182 159 149 139 126 118 110 105 99 91 91 96 107 112 110 110 106 101 99 96 94 93 90 86 83 81 80 80 79 76 75 74 74 75 71 47
168 175 179 182 184 187 190 190 192 195 196 198 207 205 198 198 196 189 186 185 179 173 168 162 158 176 156 144 139 131 122 117 110 105 102 98 102 112 117 116 114 113 108 104 102 99 95 92 89 85 84 83 83 81 79 78 75 73 71 71 74 64
167 175 180 181 185 186 185 185 187 194 193 189 203 204 195 193 188 183 184 179 173 165 144 133 152 156 145 138 135 129 120 116 114 111 107 108 117 121 119 117 116 114 110 107 104 100 94 90 88 87 88 86 85 83 80 78 75 73 71 67 68 65
170 177 182 180 184 185 182 181 187 196 195 193 199 194 188 188 181 179 179 168 156 141 111 115 147 144 139 137 134 128 122 120 118 115 114 119 124 124 120 118 118 115 111 108 104 99 94 91 91 90 91 89 86 84 80 79 75 73 71 66 64 62
173 177 180 177 180 182 180 183 193 200 196 199 199 187 183 184 177 171 166 154 148 128 96 127 142 141 140 140 135 128 127 126 123 120 122 127 126 124 122 122 121 116 111 108 103 99 96 95 94 92 92 90 87 84 80 78 75 72 70 66 64 61
170 172 172 169 172 179 183 188 200 199 189 193 194 184 180 179 172 165 158 151 155 148 132 138 139 143 145 141 134 130 131 128 127 127 128 130 128 126 127 126 122 115 111 109 104 101 100 98 97 95 93 90 86 84 80 77 74 71 70 66 63 60